Погода в Верхнем Яшкуле

Россия / Республика Калмыкия     46°29′38″N   44°09′19″E
темп.,
°C
ветер,
м/с
пор.,
м/с
влажн.,
%
обл.,
%
осадки,
мм/ч
давл.,
гПа
погр.,
м
24 сентября, пт
пт2400:00+13ссз3566100 0.0 1012232
03:00+13ссв4667100 0.0 1012363
06:00+12с3576100 0.3 1011357
09:00+11сз3483100 2.0 1013349
12:00+11ссз2381100 1.6 1013392
15:00+14з4564100 1.6 1012984
18:00+13зюз356692 0.0 1013144
21:00+12юз46805 0.0 1013134
25 сентября, сб
сб2500:00+11зюз487758 0.0 1013159
03:00+11зюз3579100 0.0 1012105
06:00+11ююз3571100 0.0 1012134
09:00+14ю5858100 0.1 1012455
12:00+18ююз6943100 0.0 10111421
15:00+12з6883100 0.8 1013450
18:00+12зюз597894 0.5 1014611
21:00+12зюз367878 0.5 1015124
26 сентября, вс
вс2600:00+11зюз510886 0.1 1015251
03:00+11з713845 0.1 1016330
06:00+10зюз7149139 0.0 1017380
09:00+12зюз71275100 0.0 1017647
12:00+17з10124694 0.0 10162010
15:00+15зюз8136991 0.1 10151276
18:00+14зюз91680100 0.3 10131167
21:00+15з11178299 0.9 10111027
27 сентября, пн
пн2700:00+13зсз8147965 0.3 1011624
03:00+11зсз713701 0.4 1012770
06:00+9зсз714731 0.0 1013599
09:00+13зсз812575 0.0 10141109
12:00+16зсз9114216 0.0 10141923
15:00+14сз81050100 0.0 10151668
18:00+13сз595854 0.0 1016821
21:00+12сз476789 0.0 1017502
28 сентября, вт
вт2800:00+11зсз3675100 0.0 1018235
03:00+11сз358298 0.1 1018271
06:00+10с34885 0.0 102073
09:00+14св34645 0.0 1021568
12:00+17св334942 0.0 10211534
15:00+16ссв5450100 0.1 10221241
18:00+14св6758100 0.0 1024800
21:00+12всв676397 0.0 1025598